Location: Arboyeti
(42.1122°N, 44.6017°E)
Time: 16:38:53
(UTC+00:00)

BREEZE M DEB (TANK) - Pass Details

Date: 19 April 2021
Orbit: 273 x 14498 km, 49.5° (Epoch: 06 May)

Event Time Altitude Azimuth Distance (km) Brightness Sun altitude
Rises 16:10:28 0° 230° (SW) 10,540 9.2 -4.9°
Reaches altitude 10° 16:20:55 10° 230° (SW) 7,100 8.3 -6.7°
Maximum altitude 16:36:35 75° 149° (SSE) 1,159 3.8 -9.4°
Drops below altitude 10° 16:40:37 10° 64° (ENE) 1,984 4.8 -10.0°
Enters shadow 16:41:43 - 62° (ENE) 2,468 5.3 -10.2°
